DIAMANT B-P4 DEB, 7655

Orbit data source: Space-Track

DIAMANT B-P4 DEB, 7655 is space debris in LEO originally from a launch on Thu, 06 Feb 1975 UTC launched from the French Guiana (FRGUI). Debris objects in space refer to the collection of defunct objects orbiting the Earth. Examples of debris include non-operational satellites, rocket bodies, and fragments generated from explosions, collisions, or faulty payload assembly.

Loading next visibility...
Identifier
7655, 1975-010D
Orbit
LEO
Country
Flag of FRFR
Related business
Manufacturer
Unknown
Mission
Spacecraft
Bus & Motor
Unknown
Mass
Unknown
Launch date (UTC)
1975-02-06 (51 years ago)
Launch vehicle
Unknown
Launch site
French Guiana (FRGUI)
Object type
Payload
Rocket body
Debris
Shape & HBR
Unknown
Radar Cross Section
Small (<0.1 m²)

Expand to show TLE details & history
Last TLE update: 2 days ago

TLE from 2 days ago
0 DIAMANT B-P4 DEB
1 07655U 75010D   25259.03276970  .00000173  00000-0  20958-3 0  9991
2 07655  49.8004 250.5030 0178872  16.9133 343.7627 13.94673250570038
Epoch: 2025-09-16T00:47Z
TLE epoch observation values (Epoch: 2025-09-16T00:47:11.302Z)
Latitude
0.00003°
Longitude
-116.52295°
Altitude
787.79 km
Speed
7.525 km/s
True Right ascension
16h 42m 00s
True Declination
0° 00' 00"
Sunlit
Object was in daylight at epoch
Visualization orbit readout
Latitude
Unknown
Longitude
Unknown
Altitude
Unknown
Speed
Unknown
Apparent Right ascension
Unknown
Apparent Declination
Unknown
Sunlit
N/A
Visualization observer readout
Local Sidereal Time
16:50:15
Azimuth
Unknown
Elevation
Unknown
Doppler factor
Unknown
Orbital elements
Apogee altitude
1,043.478 km
Perigee altitude
782.64 km
Semi-major axis
7,291.196 km
Eccentricity
0.01789
Inclination
49.8004°
RAAN
250.503°
Arg. of periapsis
16.9133°
True anomaly
343.17701°
Mean anomaly
343.7627°
Eccentric anomaly
343.47113°
Mean motion
3.48614 °/min
Orbital period
103.27 mins
BSTAR
0.00020958
Loading maneuver chart data...
Computing Atmospheric mass density...
Loading historical data...
Loading historical data...
Loading historical data...
Loading historical data...
Loading historical data...
Loading historical data...
Loading historical data...
Other satellites on launch #10 in the year 1975 (1975-02-06 UTC)

Documentation

Showing up to 5 results
|